Back to catalog

ONEWEB-0384

AliveCommunicationsPO
NORAD 49310·PAYLOAD·🇬🇧 United Kingdom

Launched Oct 14, 2021 from Vostochny Cosmodrome

Loading…

Next Passes (next 24 hours)

TLE

FreshSource: CelesTrak SupGP

Epoch: Sep 14, 2026, 14:28 UTC

1 49310C 21090AH  26257.60330273 -.00001193  00000+0 -29344-2 0  2571
2 49310  87.9142 256.6410 0002517  94.9174 281.3026 13.20821196    19

Track ONEWEB-0384 in real time with AllMySat

Download on the App Store